Time,TemperatureF,DewpointF,PressureIn,WindDirection,WindDirectionDegrees,WindSpeedMPH,WindSpeedGustMPH,Humidity,HourlyPrecipIn,Conditions,Clouds,dailyrainin,SolarRadiationWatts/m^2,SoftwareType,DateUTC
2013-04-16 00:00:00,25.0,23.0,-100.00,SSW,203,3.0,4.0,95,-99.99,,,0.03,-0.200000,,2013-04-16 07:00:00,
2013-04-16 00:42:00,25.0,23.0,-100.00,SSW,203,3.0,4.0,95,-99.99,,,0.03,-0.200000,,2013-04-16 07:42:00,
2013-04-16 00:53:00,25.0,23.0,-100.00,SSW,203,3.0,4.0,95,-99.99,,,0.03,-0.200000,,2013-04-16 07:53:00,
2013-04-16 01:00:00,25.0,24.0,-100.00,WNW,285,3.0,4.0,96,-99.99,,,0.03,-0.200000,,2013-04-16 08:00:00,
2013-04-16 02:00:00,24.0,23.0,-100.00,WNW,290,3.0,5.0,96,-99.99,,,0.03,-0.200000,,2013-04-16 09:00:00,
2013-04-16 03:00:00,24.0,24.0,-100.00,NW,315,3.0,6.0,98,-99.99,,,0.03,-0.200000,,2013-04-16 10:00:00,
2013-04-16 04:00:00,24.0,23.0,-100.00,WNW,303,3.0,5.0,97,-99.99,,,0.02,-0.200000,,2013-04-16 11:00:00,
2013-04-16 05:00:00,24.0,23.0,-100.00,WNW,300,3.0,5.0,97,-99.99,,,0.02,-4.600000,,2013-04-16 12:00:00,
2013-04-16 06:00:00,23.0,23.0,-100.00,NW,315,4.0,6.0,97,-99.99,,,-99.99,-4.600000,,2013-04-16 13:00:00,
2013-04-16 07:00:00,22.0,21.0,-100.00,NW,306,3.0,4.0,96,-99.99,,,0.02,1.500000,,2013-04-16 14:00:00,
2013-04-16 08:00:00,23.0,21.0,-100.00,NW,317,3.0,5.0,95,-99.99,,,0.01,7.700000,,2013-04-16 15:00:00,
2013-04-16 09:00:00,24.0,22.0,-100.00,West,265,4.0,6.0,94,-99.99,,,0.00,18.200001,,2013-04-16 16:00:00,
2013-04-16 10:00:00,26.0,24.0,-100.00,WSW,254,4.0,7.0,91,-99.99,,,0.00,47.700001,,2013-04-16 17:00:00,
2013-04-16 11:00:00,27.0,22.0,-100.00,NW,318,5.0,9.0,81,-99.99,,,0.00,78.500000,,2013-04-16 18:00:00,
2013-04-16 12:00:00,31.0,22.0,-100.00,North,-999,-999.0,-999.0,70,-99.99,,,-99.99,,,2013-04-16 19:00:00,
2013-04-16 12:52:00,31.0,22.0,-100.00,North,-999,-999.0,-999.0,70,-99.99,,,-99.99,,,2013-04-16 19:52:00,
2013-04-16 13:00:00,28.0,17.0,-100.00,North,354,5.0,7.0,64,-99.99,,,0.00,79.800003,,2013-04-16 20:00:00,
2013-04-16 14:00:00,34.0,21.0,-100.00,West,266,5.0,10.0,60,-99.99,,,0.00,88.599998,,2013-04-16 21:00:00,
2013-04-16 15:00:00,30.0,16.0,-100.00,NNW,336,5.0,7.0,57,-99.99,,,-99.99,57.799999,,2013-04-16 22:00:00,
2013-04-16 16:00:00,33.0,19.0,-100.00,NW,320,4.0,7.0,55,-99.99,,,-99.99,71.400002,,2013-04-16 23:00:00,
2013-04-16 17:00:00,31.0,16.0,-100.00,SW,217,4.0,7.0,52,-99.99,,,0.00,64.000000,,2013-04-17 00:00:00,
2013-04-16 18:00:00,31.0,15.0,-100.00,NNW,342,3.0,6.0,52,-99.99,,,0.00,47.299999,,2013-04-17 01:00:00,
2013-04-16 19:00:00,30.0,17.0,-100.00,WNW,294,2.0,5.0,59,-99.99,,,0.00,25.299999,,2013-04-17 02:00:00,
2013-04-16 20:00:00,27.0,15.0,-100.00,WSW,254,3.0,5.0,60,-99.99,,,0.00,4.200000,,2013-04-17 03:00:00,
2013-04-16 22:00:00,26.0,16.0,-100.00,SSW,211,2.0,4.0,66,-99.99,,,0.00,-0.200000,,2013-04-17 05:00:00,
2013-04-16 22:43:00,26.0,16.0,-100.00,SSW,211,2.0,4.0,66,-99.99,,,0.00,-0.200000,,2013-04-17 05:43:00,
2013-04-16 22:52:00,26.0,16.0,-100.00,SSW,211,2.0,4.0,66,-99.99,,,0.00,-0.200000,,2013-04-17 05:52:00,
2013-04-16 23:00:00,26.0,16.0,-100.00,South,182,2.0,3.0,67,-99.99,,,0.00,-0.200000,,2013-04-17 06:00:00,